| time (UTC) | temp F | wind direction | speed knots | gust knots | rain 1hr in | rain 24hr in | rain mn in | humidity % | barometer mb |
| 20260507152811 | 54 | 304 | 0.0 | 1.7 | 0.01 | 0.01 | 0.01 | 84 | 1015.0 |
| 20260507151311 | 55 | 111 | 0.0 | 0.0 | 0.00 | 0.00 | 0.00 | 80 | 1015.1 |
| 20260507145811 | 56 | 111 | 0.0 | 0.0 | 0.00 | 0.00 | 0.00 | 76 | 1015.0 |
| 20260507144311 | 56 | 111 | 0.9 | 2.6 | 0.00 | 0.00 | 0.00 | 71 | 1015.1 |
| 20260507142811 | 57 | 97 | 2.6 | 5.2 | 0.00 | 0.00 | 0.00 | 67 | 1015.2 |
| 20260507141311 | 57 | 121 | 0.9 | 5.2 | 0.00 | 0.00 | 0.00 | 64 | 1015.3 |
| 20260507135811 | 58 | 250 | 0.9 | 4.3 | 0.00 | 0.00 | 0.00 | 62 | 1015.2 |
| 20260507134311 | 58 | 113 | 0.9 | 3.5 | 0.00 | 0.00 | 0.00 | 63 | 1015.2 |
| 20260507132811 | 58 | 136 | 1.7 | 6.1 | 0.00 | 0.00 | 0.00 | 61 | 1015.1 |
| 20260507131311 | 58 | 101 | 2.6 | 6.1 | 0.00 | 0.00 | 0.00 | 60 | 1015.1 |
| 20260507125811 | 59 | 121 | 2.6 | 7.0 | 0.00 | 0.00 | 0.00 | 58 | 1015.2 |
| 20260507124311 | 59 | 137 | 1.7 | 3.5 | 0.00 | 0.00 | 0.00 | 58 | 1015.2 |
| 20260507122811 | 59 | 106 | 2.6 | 5.2 | 0.00 | 0.00 | 0.00 | 61 | 1015.3 |
| 20260507121311 | 58 | 209 | 2.6 | 6.1 | 0.00 | 0.00 | 0.00 | 61 | 1015.3 |
| 20260507115811 | 58 | 123 | 2.6 | 5.2 | 0.00 | 0.00 | 0.00 | 61 | 1015.4 |
| 20260507114312 | 58 | 149 | 1.7 | 6.1 | 0.00 | 0.00 | 0.00 | 61 | 1015.6 |
| 20260507112812 | 59 | 132 | 2.6 | 7.0 | 0.00 | 0.00 | 0.00 | 60 | 1015.5 |
| 20260507111312 | 61 | 191 | 1.7 | 6.1 | 0.00 | 0.00 | 0.00 | 60 | 1015.5 |
| 20260507105812 | 61 | 105 | 1.7 | 4.3 | 0.00 | 0.00 | 0.00 | 61 | 1015.5 |
| 20260507104312 | 60 | 126 | 1.7 | 5.2 | 0.00 | 0.00 | 0.00 | 60 | 1015.8 |
| 20260507102812 | 58 | 122 | 1.7 | 7.0 | 0.00 | 0.00 | 0.00 | 66 | 1015.8 |
| 20260507101312 | 57 | 140 | 1.7 | 2.6 | 0.00 | 0.00 | 0.00 | 73 | 1015.7 |
| 20260507095812 | 55 | 159 | 0.9 | 3.5 | 0.00 | 0.00 | 0.00 | 76 | 1015.7 |
| 20260507094312 | 54 | 159 | 0.9 | 3.5 | 0.00 | 0.00 | 0.00 | 77 | 1016.0 |
| 20260507092812 | 53 | 138 | 1.7 | 4.3 | 0.00 | 0.00 | 0.00 | 79 | 1016.0 |
| 20260507091312 | 51 | 48 | 1.7 | 3.5 | 0.00 | 0.00 | 0.00 | 81 | 1015.8 |
| 20260507085812 | 50 | 129 | 0.9 | 2.6 | 0.00 | 0.00 | 0.00 | 84 | 1016.1 |
| 20260507084312 | 48 | 148 | 1.7 | 3.5 | 0.00 | 0.00 | 0.00 | 86 | 1016.1 |
| 20260507082812 | 47 | 159 | 0.9 | 4.3 | 0.00 | 0.00 | 0.00 | 87 | 1016.0 |
| 20260507081312 | 46 | 128 | 0.9 | 2.6 | 0.00 | 0.00 | 0.00 | 88 | 1015.9 |
| 20260507075812 | 46 | 109 | 0.9 | 3.5 | 0.00 | 0.00 | 0.00 | 88 | 1015.9 |
| 20260507074312 | 46 | 91 | 0.9 | 2.6 | 0.00 | 0.00 | 0.00 | 89 | 1015.9 |
| 20260507072812 | 45 | 167 | 0.9 | 2.6 | 0.00 | 0.00 | 0.00 | 89 | 1015.9 |
| 20260507071312 | 45 | 110 | 0.9 | 3.5 | 0.00 | 0.00 | 0.00 | 89 | 1015.8 |
| 20260507065812 | 44 | 50 | 0.0 | 1.7 | 0.00 | 0.00 | 0.00 | 90 | 1015.7 |
| 20260507064312 | 44 | 86 | 0.0 | 2.6 | 0.00 | 0.00 | 0.00 | 90 | 1015.5 |
| 20260507062812 | 44 | 148 | 0.9 | 1.7 | 0.00 | 0.00 | 0.00 | 90 | 1015.4 |
| 20260507061312 | 44 | 340 | 0.9 | 1.7 | 0.00 | 0.00 | 0.00 | 91 | 1015.5 |
| 20260507055812 | 43 | 11 | 0.9 | 2.6 | 0.00 | 0.00 | 0.00 | 91 | 1015.3 |
| 20260507054312 | 43 | 109 | 0.9 | 3.5 | 0.00 | 0.00 | 0.00 | 91 | 1015.3 |
| 20260507052812 | 43 | 160 | 0.9 | 5.2 | 0.00 | 0.00 | 0.00 | 91 | 1015.3 |
| 20260507051312 | 43 | 116 | 0.9 | 3.5 | 0.00 | 0.00 | 0.00 | 90 | 1015.3 |
| 20260507045812 | 43 | 129 | 0.9 | 2.6 | 0.00 | 0.00 | 0.00 | 90 | 1015.3 |
| 20260507044312 | 43 | 24 | 0.0 | 1.7 | 0.00 | 0.00 | 0.00 | 90 | 1015.2 |
| 20260507042812 | 43 | 109 | 0.9 | 4.3 | 0.00 | 0.00 | 0.00 | 90 | 1015.1 |
| 20260507041312 | 43 | 65 | 0.0 | 0.9 | 0.00 | 0.00 | 0.00 | 90 | 1015.0 |
| 20260507035812 | 43 | 355 | 0.9 | 4.3 | 0.00 | 0.00 | 0.00 | 90 | 1015.1 |
| 20260507034312 | 43 | 355 | 0.9 | 2.6 | 0.00 | 0.00 | 0.00 | 90 | 1015.1 |
| 20260507032812 | 43 | 15 | 0.9 | 3.5 | 0.00 | 0.00 | 0.00 | 90 | 1015.2 |
| 20260507031312 | 44 | 159 | 0.9 | 3.5 | 0.00 | 0.00 | 0.00 | 90 | 1015.3 |
| 20260507025812 | 44 | 26 | 1.7 | 5.2 | 0.00 | 0.00 | 0.00 | 90 | 1015.2 |
| 20260507024312 | 44 | 15 | 1.7 | 3.5 | 0.00 | 0.00 | 0.00 | 89 | 1015.2 |
| 20260507022812 | 44 | 130 | 1.7 | 5.2 | 0.00 | 0.00 | 0.00 | 89 | 1015.0 |
| 20260507021312 | 44 | 132 | 1.7 | 5.2 | 0.00 | 0.00 | 0.00 | 88 | 1015.0 |
| 20260507015812 | 44 | 22 | 1.7 | 3.5 | 0.00 | 0.00 | 0.00 | 88 | 1015.0 |
| 20260507014312 | 44 | 139 | 0.9 | 2.6 | 0.00 | 0.00 | 0.00 | 87 | 1015.0 |
| 20260507012812 | 45 | 165 | 1.7 | 3.5 | 0.00 | 0.00 | 0.00 | 87 | 1015.1 |
| 20260507011312 | 45 | 89 | 1.7 | 6.1 | 0.00 | 0.00 | 0.00 | 86 | 1015.1 |
| 20260507005812 | 45 | 75 | 1.7 | 3.5 | 0.00 | 0.00 | 0.00 | 86 | 1015.0 |
| 20260507004312 | 45 | 151 | 0.9 | 3.5 | 0.00 | 0.00 | 0.00 | 85 | 1015.1 |
| 20260507002812 | 45 | 136 | 1.7 | 3.5 | 0.00 | 0.00 | 0.00 | 85 | 1015.2 |
| 20260507001312 | 46 | 49 | 0.9 | 4.3 | 0.00 | 0.00 | 0.00 | 84 | 1015.3 |
| 20260506235812 | 46 | 136 | 0.9 | 3.5 | 0.00 | 0.00 | 0.00 | 83 | 1015.4 |
| 20260506234312 | 46 | 355 | 1.7 | 8.7 | 0.00 | 0.00 | 0.00 | 82 | 1015.3 |
| 20260506232812 | 46 | 128 | 0.9 | 4.3 | 0.00 | 0.00 | 0.00 | 81 | 1015.3 |
| 20260506231312 | 47 | 323 | 1.7 | 3.5 | 0.00 | 0.00 | 0.00 | 80 | 1015.2 |
| 20260506225812 | 47 | 37 | 0.9 | 4.3 | 0.00 | 0.00 | 0.00 | 79 | 1015.3 |
| 20260506224312 | 48 | 175 | 1.7 | 4.3 | 0.00 | 0.00 | 0.00 | 77 | 1015.1 |
| 20260506222813 | 48 | 51 | 1.7 | 5.2 | 0.00 | 0.00 | 0.00 | 76 | 1015.1 |
| 20260506221313 | 49 | 152 | 0.9 | 3.5 | 0.00 | 0.00 | 0.00 | 74 | 1015.0 |
| 20260506215813 | 49 | 28 | 0.9 | 2.6 | 0.00 | 0.00 | 0.00 | 73 | 1015.0 |
| 20260506214313 | 49 | 28 | 0.9 | 4.3 | 0.00 | 0.00 | 0.00 | 72 | 1014.9 |
| 20260506212813 | 49 | 5 | 0.0 | 1.7 | 0.00 | 0.00 | 0.00 | 71 | 1014.9 |
| 20260506211313 | 49 | 57 | 0.0 | 0.9 | 0.00 | 0.00 | 0.00 | 70 | 1014.9 |
| 20260506205813 | 49 | 33 | 0.0 | 1.7 | 0.00 | 0.00 | 0.00 | 69 | 1014.6 |
| 20260506204313 | 49 | 25 | 0.9 | 2.6 | 0.00 | 0.00 | 0.00 | 68 | 1014.7 |
| 20260506202813 | 50 | 85 | 0.0 | 1.7 | 0.00 | 0.00 | 0.00 | 66 | 1014.5 |
| 20260506201313 | 51 | 85 | 0.0 | 1.7 | 0.00 | 0.00 | 0.00 | 63 | 1014.5 |
| 20260506195813 | 52 | 107 | 0.9 | 3.5 | 0.00 | 0.00 | 0.00 | 62 | 1014.2 |
| 20260506194313 | 53 | 74 | 0.9 | 2.6 | 0.00 | 0.00 | 0.00 | 61 | 1014.1 |
| 20260506192813 | 54 | 25 | 1.7 | 2.6 | 0.00 | 0.00 | 0.00 | 59 | 1014.1 |
| 20260506191313 | 54 | 27 | 0.9 | 2.6 | 0.00 | 0.00 | 0.00 | 57 | 1014.0 |
| 20260506185813 | 55 | 32 | 1.7 | 4.3 | 0.00 | 0.00 | 0.00 | 56 | 1013.7 |
| 20260506184313 | 55 | 30 | 1.7 | 3.5 | 0.00 | 0.00 | 0.00 | 56 | 1013.8 |
| 20260506182813 | 56 | 337 | 1.7 | 4.3 | 0.00 | 0.00 | 0.00 | 54 | 1013.9 |
| 20260506181313 | 56 | 5 | 2.6 | 5.2 | 0.00 | 0.00 | 0.00 | 53 | 1013.8 |
| 20260506175813 | 57 | 263 | 1.7 | 7.0 | 0.00 | 0.00 | 0.00 | 52 | 1013.6 |
| 20260506174313 | 58 | 5 | 2.6 | 5.2 | 0.00 | 0.00 | 0.00 | 52 | 1013.5 |
| 20260506172813 | 58 | 20 | 0.9 | 4.3 | 0.00 | 0.00 | 0.00 | 50 | 1013.5 |
| 20260506171313 | 59 | 29 | 1.7 | 7.8 | 0.00 | 0.00 | 0.00 | 49 | 1013.5 |
| 20260506165813 | 60 | 42 | 1.7 | 7.0 | 0.00 | 0.00 | 0.00 | 48 | 1013.5 |
| 20260506164313 | 62 | 13 | 1.7 | 6.1 | 0.00 | 0.00 | 0.00 | 47 | 1013.3 |
| 20260506162813 | 62 | 36 | 1.7 | 3.5 | 0.00 | 0.00 | 0.00 | 46 | 1013.4 |
| 20260506161313 | 61 | 22 | 2.6 | 7.0 | 0.00 | 0.00 | 0.00 | 48 | 1013.5 |
| 20260506155813 | 61 | 24 | 2.6 | 6.1 | 0.00 | 0.00 | 0.00 | 46 | 1013.5 |
| 20260506154313 | 62 | 10 | 1.7 | 9.6 | 0.00 | 0.00 | 0.00 | 47 | 1013.5 |